Location: Mohawk View
(42.7837°N, 73.7885°W)
Time: 07:35:22
(UTC+00:00)

SL-4 R/B - Pass Details

Date: 17 June 2021
Orbit: 428 x 662 km, 51.6° (Epoch: 27 July)

Event Time Altitude Azimuth Distance (km) Brightness Sun altitude
Exits shadow 04:51:55 60° 22° (NNE) 573 2.2 -23.8°
Drops below altitude 10° 04:55:06 10° 53° (NE) 1,645 4.9 -23.8°
Sets 04:57:11 0° 56° (NE) 2,492 5.8 -23.8°
